When you browse on this site, cookies collect data to enhance your experience and personalize the content and advertising you see.
Visit our Privacy Policy to learn more. By continuing to use the site, you agree to this use of cookies and data.
  • în România
  • Lista ţărilor
  • Pe 7 zile
  • Temperatura apei
  • Meteo pe hartă
  • Widget-uri
  • user-avatar
    Intrare

    Meteo pe oră la Naftalan

    Astăzi, 15 Septembrie, Duminică

    Timp Temperatura Precipitaţii Vânt Presiune Umiditate
    00:00 +22°C° 0 mm 4 m/s 767 mmHg 67%
    01:00 +21°C° 0 mm 3 m/s 766 mmHg 68%
    02:00 +21°C° 0 mm 3 m/s 766 mmHg 69%
    03:00 +21°C° 0 mm 3 m/s 766 mmHg 70%
    04:00 +21°C° 0 mm 3 m/s 766 mmHg 70%
    05:00 +21°C° 0 mm 3 m/s 766 mmHg 70%
    06:00 +21°C° 0 mm 3 m/s 766 mmHg 70%
    07:00 +23°C° 0 mm 4 m/s 766 mmHg 66%
    08:00 +25°C° 0 mm 4 m/s 766 mmHg 61%
    09:00 +27°C° 0 mm 5 m/s 766 mmHg 56%
    10:00 +27°C° 0 mm 5 m/s 766 mmHg 54%
    11:00 +27°C° 0 mm 5 m/s 766 mmHg 53%
    12:00 +28°C° 0 mm 5 m/s 766 mmHg 51%
    13:00 +28°C° 0 mm 5 m/s 765 mmHg 52%
    14:00 +28°C° 0 mm 5 m/s 765 mmHg 53%
    15:00 +27°C° 0 mm 5 m/s 765 mmHg 55%
    16:00 +26°C° 0 mm 5 m/s 765 mmHg 59%
    17:00 +26°C° 0 mm 5 m/s 765 mmHg 64%
    18:00 +25°C° 0 mm 5 m/s 765 mmHg 68%
    19:00 +25°C° 0 mm 4 m/s 765 mmHg 69%
    20:00 +23°C° 0 mm 4 m/s 766 mmHg 70%
    21:00 +24°C° 0 mm 3 m/s 766 mmHg 70%
    22:00 +24°C° 0 mm 3 m/s 766 mmHg 72%
    23:00 +24°C° 0 mm 3 m/s 766 mmHg 73%

    Mâine, 16 Septembrie, Luni

    Timp Temperatura Precipitaţii Vânt Presiune Umiditate
    00:00 +23°C° 0 mm 2 m/s 766 mmHg 74%
    01:00 +23°C° 0.2 mm 2 m/s 766 mmHg 76%
    02:00 +23°C° 0.2 mm 1 m/s 766 mmHg 78%
    03:00 +22°C° 0.2 mm 1 m/s 766 mmHg 80%
    04:00 +22°C° 0.1 mm 1 m/s 767 mmHg 80%
    05:00 +23°C° 0.1 mm 1 m/s 767 mmHg 80%
    06:00 +23°C° 0.1 mm 1 m/s 767 mmHg 79%
    07:00 +24°C° 0 mm 2 m/s 767 mmHg 73%
    08:00 +25°C° 0 mm 3 m/s 767 mmHg 67%
    09:00 +27°C° 0 mm 4 m/s 767 mmHg 61%
    10:00 +27°C° 0 mm 4 m/s 766 mmHg 59%
    11:00 +28°C° 0 mm 5 m/s 765 mmHg 57%
    12:00 +28°C° 0 mm 5 m/s 765 mmHg 55%
    13:00 +28°C° 0 mm 5 m/s 764 mmHg 55%
    14:00 +28°C° 0 mm 5 m/s 763 mmHg 56%
    15:00 +27°C° 0 mm 6 m/s 763 mmHg 56%
    16:00 +27°C° 0 mm 5 m/s 762 mmHg 59%
    17:00 +26°C° 0 mm 4 m/s 762 mmHg 62%
    18:00 +25°C° 0 mm 4 m/s 762 mmHg 64%
    19:00 +25°C° 0 mm 4 m/s 762 mmHg 67%
    20:00 +23°C° 0 mm 4 m/s 762 mmHg 69%
    21:00 +24°C° 0 mm 3 m/s 762 mmHg 71%
    22:00 +24°C° 0 mm 3 m/s 762 mmHg 73%
    23:00 +24°C° 0 mm 3 m/s 761 mmHg 75%

    Poimâine, 17 Septembrie, Marţi

    Timp Temperatura Precipitaţii Vânt Presiune Umiditate
    00:00 +23°C° 0 mm 2 m/s 761 mmHg 77%
    01:00 +23°C° 0 mm 2 m/s 761 mmHg 79%
    02:00 +21°C° 0 mm 2 m/s 760 mmHg 81%
    03:00 +21°C° 0 mm 2 m/s 760 mmHg 84%
    04:00 +21°C° 0 mm 2 m/s 760 mmHg 85%
    05:00 +21°C° 0 mm 2 m/s 760 mmHg 85%
    06:00 +21°C° 0 mm 2 m/s 760 mmHg 86%
    07:00 +24°C° 0 mm 2 m/s 760 mmHg 76%
    08:00 +26°C° 0 mm 2 m/s 760 mmHg 66%
    09:00 +27°C° 0 mm 1 m/s 760 mmHg 57%
    10:00 +29°C° 0 mm 2 m/s 760 mmHg 53%
    11:00 +30°C° 0 mm 2 m/s 759 mmHg 50%
    12:00 +31°C° 0 mm 2 m/s 759 mmHg 46%
    13:00 +31°C° 0 mm 3 m/s 758 mmHg 49%
    14:00 +30°C° 0 mm 4 m/s 758 mmHg 51%
    15:00 +30°C° 0 mm 5 m/s 757 mmHg 54%
    16:00 +29°C° 0 mm 5 m/s 757 mmHg 59%
    17:00 +28°C° 0 mm 4 m/s 757 mmHg 65%
    18:00 +26°C° 0 mm 4 m/s 757 mmHg 70%
    19:00 +26°C° 0 mm 4 m/s 757 mmHg 72%
    20:00 +26°C° 0 mm 4 m/s 758 mmHg 73%
    21:00 +25°C° 0 mm 4 m/s 758 mmHg 75%
    22:00 +25°C° 0 mm 3 m/s 759 mmHg 76%
    23:00 +25°C° 0 mm 3 m/s 759 mmHg 76%

    18 Septembrie, Miercuri

    Timp Temperatura Precipitaţii Vânt Presiune Umiditate
    00:00 +24°C° 0 mm 2 m/s 759 mmHg 76%
    01:00 +24°C° 0 mm 2 m/s 760 mmHg 76%
    02:00 +24°C° 0 mm 2 m/s 760 mmHg 76%
    03:00 +24°C° 0 mm 2 m/s 761 mmHg 77%
    04:00 +24°C° 0 mm 2 m/s 761 mmHg 75%
    05:00 +24°C° 0 mm 2 m/s 761 mmHg 73%
    06:00 +22°C° 0 mm 3 m/s 762 mmHg 71%
    07:00 +25°C° 0 mm 3 m/s 763 mmHg 63%
    08:00 +27°C° 0 mm 3 m/s 763 mmHg 55%
    09:00 +29°C° 0 mm 3 m/s 764 mmHg 47%
    10:00 +30°C° 0 mm 3 m/s 764 mmHg 45%
    11:00 +31°C° 0 mm 3 m/s 763 mmHg 44%
    12:00 +31°C° 0 mm 3 m/s 763 mmHg 42%
    13:00 +32°C° 0 mm 4 m/s 763 mmHg 46%
    14:00 +30°C° 0 mm 5 m/s 763 mmHg 50%
    15:00 +29°C° 0 mm 6 m/s 763 mmHg 55%
    16:00 +28°C° 0 mm 6 m/s 763 mmHg 60%
    17:00 +27°C° 0 mm 6 m/s 763 mmHg 65%
    18:00 +26°C° 0 mm 7 m/s 763 mmHg 70%
    19:00 +26°C° 0 mm 7 m/s 763 mmHg 71%
    20:00 +26°C° 0 mm 7 m/s 764 mmHg 73%
    21:00 +24°C° 0 mm 7 m/s 764 mmHg 74%
    22:00 +24°C° 0 mm 6 m/s 763 mmHg 74%
    23:00 +25°C° 0 mm 5 m/s 763 mmHg 74%

    19 Septembrie, Joi

    Timp Temperatura Precipitaţii Vânt Presiune Umiditate
    00:00 +25°C° 0 mm 5 m/s 763 mmHg 75%
    01:00 +25°C° 0 mm 5 m/s 763 mmHg 76%
    02:00 +23°C° 0 mm 4 m/s 762 mmHg 78%
    03:00 +23°C° 0 mm 4 m/s 762 mmHg 79%
    04:00 +23°C° 0 mm 4 m/s 762 mmHg 79%
    05:00 +23°C° 0 mm 4 m/s 762 mmHg 79%
    06:00 +23°C° 0 mm 4 m/s 762 mmHg 79%
    07:00 +26°C° 0 mm 3 m/s 762 mmHg 71%
    08:00 +27°C° 0 mm 3 m/s 763 mmHg 63%
    09:00 +29°C° 0 mm 3 m/s 763 mmHg 55%
    10:00 +30°C° 0 mm 3 m/s 762 mmHg 52%
    11:00 +30°C° 0 mm 3 m/s 762 mmHg 49%
    12:00 +31°C° 0 mm 3 m/s 762 mmHg 46%
    13:00 +32°C° 0 mm 4 m/s 762 mmHg 48%
    14:00 +32°C° 0 mm 5 m/s 762 mmHg 50%
    15:00 +30°C° 0 mm 6 m/s 761 mmHg 51%
    16:00 +29°C° 0 mm 5 m/s 762 mmHg 57%
    17:00 +28°C° 0 mm 5 m/s 762 mmHg 62%
    18:00 +26°C° 0 mm 4 m/s 762 mmHg 68%
    19:00 +26°C° 0 mm 5 m/s 763 mmHg 70%
    20:00 +26°C° 0 mm 5 m/s 763 mmHg 72%
    21:00 +25°C° 0 mm 5 m/s 763 mmHg 74%
    22:00 +25°C° 0 mm 5 m/s 763 mmHg 74%
    23:00 +25°C° 0 mm 5 m/s 763 mmHg 75%

    20 Septembrie, Vineri

    Timp Temperatura Precipitaţii Vânt Presiune Umiditate
    00:00 +23°C° 0 mm 5 m/s 763 mmHg 76%
    01:00 +23°C° 0 mm 5 m/s 763 mmHg 77%
    02:00 +23°C° 0 mm 5 m/s 762 mmHg 78%
    03:00 +22°C° 0 mm 4 m/s 762 mmHg 78%
    04:00 +22°C° 0 mm 4 m/s 762 mmHg 78%
    05:00 +22°C° 0 mm 3 m/s 762 mmHg 78%
    06:00 +22°C° 0 mm 3 m/s 762 mmHg 77%
    07:00 +24°C° 0 mm 3 m/s 762 mmHg 72%
    08:00 +25°C° 0 mm 3 m/s 762 mmHg 66%
    09:00 +27°C° 0 mm 3 m/s 761 mmHg 60%
    10:00 +27°C° 0 mm 3 m/s 761 mmHg 59%
    11:00 +28°C° 0 mm 3 m/s 760 mmHg 57%
    12:00 +28°C° 0 mm 3 m/s 760 mmHg 55%
    13:00 +28°C° 0 mm 3 m/s 759 mmHg 55%
    14:00 +28°C° 0 mm 4 m/s 759 mmHg 56%
    15:00 +28°C° 0 mm 4 m/s 758 mmHg 57%
    16:00 +27°C° 0 mm 4 m/s 758 mmHg 63%
    17:00 +26°C° 0 mm 4 m/s 758 mmHg 68%
    18:00 +25°C° 0 mm 4 m/s 758 mmHg 73%
    19:00 +24°C° 0 mm 3 m/s 758 mmHg 76%
    20:00 +24°C° 0 mm 3 m/s 759 mmHg 79%
    21:00 +24°C° 0 mm 3 m/s 759 mmHg 82%
    22:00 +24°C° 0 mm 3 m/s 759 mmHg 82%
    23:00 +22°C° 0 mm 3 m/s 758 mmHg 82%
    Arată mai mult